Reno, NV

10:39 PM PDT on August 23, 2019 (GMT -0700)
Reno-Tahoe International

Weather History for KRNO - July, 2019

Change the Weather History Date:

Friday, July 19, 2019

  Actual Average Record
Temperature  
Mean Temperature 78 °F 76 °F  
Max Temperature 94 °F 93 °F 105 °F (1931)
Min Temperature 62 °F 58 °F 37 °F (1967)
Degree Days  
Heating Degree Days 0 0  
Month to date heating degree days 0 0  
Since 1 June heating degree days 15 56  
Since 1 July heating degree days 0 0  
Cooling Degree Days 13 11  
Month to date cooling degree days 198 182  
Year to date cooling degree days 414 355  
Since 1 June cooling degree days 400 318  
Growing Degree Days 28 (Base 50)    
Moisture  
Dew Point 44 °F    
Average Humidity 35    
Maximum Humidity 52    
Minimum Humidity 17    
Precipitation  
Precipitation 0.00 in 0.01 in 0.30 in (1922)
Month to date precipitation 0.00 0.10  
Year to date precipitation 8.51 4.38  
Snow  
Snow 0.00 in 0.00 in 0.00 in ()
Month to date snowfall 0.0 0.0  
Since 1 June snowfall 0.0 T  
Since 1 July snowfall 0.0 0.0  
Snow Depth 0.00 in    
Sea Level Pressure  
Sea Level Pressure 29.81 in    
Wind  
Wind Speed 7 mph (NW)    
Max Wind Speed 23 mph    
Max Gust Speed 29 mph    
Visibility 10 miles    
Events      
T = Trace of Precipitation, MM = Missing Value Source: NWS Daily Summary

Daily Weather History Graph

Daily Weather History Graph

Search for Another Location

Airport or City:

Astronomy

Jul. 19, 2019 Rise Set
Actual Time 5:47 AM PDT 8:22 PM PDT
Civil Twilight 5:16 AM PDT 8:54 PM PDT
Nautical Twilight 4:37 AM PDT 9:32 PM PDT
Astronomical Twilight 3:53 AM PDT 10:16 PM PDT
Moon 10:24 PM PDT (7/19) 8:18 AM PDT (7/19)
Length of Visible Light 15h 37m
Length of Day
14h 35m
Waning Gibbous, 92% of the Moon is Illuminated
Jul 19
Waning Gibbous
Jul 24
Last Quarter
Jul 31
New
Aug 7
First Quarter
Aug 15
Full

Hourly Weather History & Observations

Time (PDT) Temp. Dew Point Humidity Pressure Visibility Wind Dir Wind Speed Gust Speed Precip Events Conditions
12:55 AM 72.0 °F 43.0 °F 35% 29.82 in 10.0 mi NNW 8.1 mph - N/A   Clear
1:55 AM 70.0 °F 45.0 °F 41% 29.82 in 10.0 mi Calm Calm - N/A   Clear
2:55 AM 68.0 °F 45.0 °F 43% 29.82 in 10.0 mi Calm Calm - N/A   Clear
3:55 AM 64.0 °F 44.1 °F 48% 29.82 in 10.0 mi South 5.8 mph - N/A   Clear
4:55 AM 62.1 °F 44.1 °F 52% 29.84 in 10.0 mi South 4.6 mph - N/A   Partly Cloudy
5:55 AM 62.1 °F 44.1 °F 52% 29.85 in 10.0 mi Calm Calm - N/A   Partly Cloudy
6:55 AM 64.9 °F 45.0 °F 48% 29.86 in 10.0 mi South 3.5 mph - N/A   Partly Cloudy
7:55 AM 68.0 °F 45.0 °F 43% 29.87 in 10.0 mi Calm Calm - N/A   Partly Cloudy
8:55 AM 71.1 °F 45.0 °F 39% 29.87 in 10.0 mi Calm Calm - N/A   Partly Cloudy
9:55 AM 75.9 °F 46.0 °F 35% 29.85 in 10.0 mi Calm Calm - N/A   Partly Cloudy
10:55 AM 82.0 °F 39.9 °F 22% 29.83 in 10.0 mi WSW 4.6 mph - N/A   Partly Cloudy
11:55 AM 86.0 °F 37.9 °F 18% 29.81 in 10.0 mi WSW 8.1 mph - N/A   Partly Cloudy
12:55 PM 88.0 °F 37.9 °F 17% 29.79 in 10.0 mi Variable 3.5 mph - N/A   Partly Cloudy
1:55 PM 90.0 °F 39.0 °F 17% 29.77 in 10.0 mi Variable 4.6 mph - N/A   Partly Cloudy
2:55 PM 91.9 °F 41.0 °F 17% 29.76 in 10.0 mi NNW 11.5 mph - N/A   Partly Cloudy
3:55 PM 91.0 °F 43.0 °F 19% 29.75 in 10.0 mi North 3.5 mph 21.9 mph N/A   Partly Cloudy
4:55 PM 90.0 °F 44.1 °F 20% 29.76 in 10.0 mi North 16.1 mph 21.9 mph N/A   Partly Cloudy
5:55 PM 90.0 °F 46.0 °F 22% 29.75 in 10.0 mi NW 17.3 mph - N/A   Partly Cloudy
6:55 PM 88.0 °F 46.0 °F 23% 29.75 in 10.0 mi NW 17.3 mph - N/A   Partly Cloudy
7:55 PM 84.0 °F 46.9 °F 27% 29.76 in 10.0 mi NNW 21.9 mph - N/A   Partly Cloudy
8:55 PM 80.1 °F 48.0 °F 32% 29.78 in 10.0 mi WNW 16.1 mph - N/A   Clear
9:55 PM 78.1 °F 48.0 °F 35% 29.81 in 10.0 mi NW 11.5 mph - N/A   Clear
10:55 PM 75.9 °F 46.9 °F 36% 29.81 in 10.0 mi NW 12.7 mph - N/A   Clear
11:55 PM 73.9 °F 45.0 °F 35% 29.82 in 10.0 mi North 8.1 mph - N/A   Clear